Weather History for KFAY - October, 2011

Change the Weather History Date:

Friday, October 14, 2011

  Actual Average Record
Temperature  
Mean Temperature 67 °F 64 °F  
Max Temperature 77 °F 75 °F 90 °F (1940)
Min Temperature 57 °F 53 °F 30 °F (1988)
Degree Days  
Heating Degree Days 0 3  
Month to date heating degree days 33 29  
Since 1 July heating degree days 43 38  
Cooling Degree Days 2 2  
Month to date cooling degree days 24 45  
Year to date cooling degree days 2367 1953  
Growing Degree Days 17 (Base 50)    
Moisture  
Dew Point 52 °F    
Average Humidity 59    
Maximum Humidity 90    
Minimum Humidity 27    
Precipitation  
Precipitation 0.03 in 0.08 in 2.00 in (1930)
Month to date precipitation 0.69 1.88  
Year to date precipitation 30.48 37.71  
Sea Level Pressure  
Sea Level Pressure 29.68 in    
Wind  
Wind Speed 11 mph (SW)    
Max Wind Speed 22 mph    
Max Gust Speed 31 mph    
Visibility 10 miles    
Events Rain    
T = Trace of Precipitation, MM = Missing Value Source: NWS Daily Summary

Daily Weather History Graph

Daily Weather History Graph

Search for Another Location

Airport or City:

Trip Planner

Search our weather history database for the weather conditions in past years. The results will help you decide how hot, cold, wet, or windy it might be!

Date:

Astronomy

Oct. 14, 2011 Rise Set
Actual Time 7:20 AM EDT 6:42 PM EDT
Civil Twilight 6:54 AM EDT 7:07 PM EDT
Nautical Twilight 6:25 AM EDT 7:37 PM EDT
Astronomical Twilight 5:56 AM EDT 8:06 PM EDT
Moon 8:02 PM EDT (10/14) 9:39 AM EDT (10/14)
Length of Visible Light 12h 12m
Length of Day
11h 21m
Waning Gibbous, 94% of the Moon is Illuminated
Oct 14
Waning Gibbous
Oct 19
Last Quarter
Oct 26
New
Nov 2
First Quarter
Nov 10
Full

Hourly Weather History & Observations

Time (EDT) Temp. Dew Point Humidity Pressure Visibility Wind Dir Wind Speed Gust Speed Precip Events Conditions
12:53 AM 64.0 °F 60.1 °F 87% 29.63 in 10.0 mi SSW 11.5 mph 23.0 mph 0.04 in Rain Light Rain
1:53 AM 63.0 °F 59.0 °F 87% 29.61 in 10.0 mi SSW 6.9 mph - 0.03 in Rain Light Rain
2:53 AM 62.1 °F 59.0 °F 90% 29.60 in 10.0 mi SSW 6.9 mph - 0.00 in   Scattered Clouds
3:53 AM 61.0 °F 57.9 °F 90% 29.59 in 10.0 mi SSW 10.4 mph - N/A   Partly Cloudy
4:53 AM 60.1 °F 57.0 °F 90% 29.60 in 10.0 mi SSW 8.1 mph - N/A   Scattered Clouds
5:04 AM 60.8 °F 57.2 °F 88% 29.61 in 10.0 mi SSW 8.1 mph - N/A   Mostly Cloudy
5:30 AM 60.8 °F 57.2 °F 88% 29.62 in 10.0 mi SW 10.4 mph 18.4 mph N/A   Overcast
5:53 AM 61.0 °F 57.0 °F 87% 29.61 in 10.0 mi SW 11.5 mph - N/A   Overcast
6:53 AM 61.0 °F 55.9 °F 83% 29.62 in 10.0 mi SW 12.7 mph - N/A   Overcast
7:53 AM 61.0 °F 55.9 °F 83% 29.63 in 10.0 mi WSW 12.7 mph - N/A   Overcast
8:53 AM 63.0 °F 55.9 °F 78% 29.66 in 10.0 mi WSW 13.8 mph - N/A   Mostly Cloudy
9:08 AM 62.6 °F 55.4 °F 77% 29.67 in 10.0 mi WSW 13.8 mph - N/A   Partly Cloudy
9:53 AM 64.9 °F 55.9 °F 73% 29.68 in 10.0 mi WSW 17.3 mph 20.7 mph N/A   Scattered Clouds
10:53 AM 69.1 °F 55.9 °F 63% 29.68 in 10.0 mi West 13.8 mph 23.0 mph N/A   Clear
11:53 AM 73.4 °F 51.8 °F 47% 29.70 in 10.0 mi West 15.0 mph 24.2 mph N/A   Clear
12:53 PM 75.9 °F 45.0 °F 33% 29.68 in 10.0 mi West 24.2 mph 27.6 mph N/A   Clear
1:53 PM 75.9 °F 44.1 °F 32% 29.67 in 10.0 mi WNW 18.4 mph 24.2 mph N/A   Clear
2:53 PM 77.0 °F 41.0 °F 28% 29.69 in 10.0 mi WNW 11.5 mph 27.6 mph N/A   Partly Cloudy
3:53 PM 75.9 °F 39.9 °F 27% 29.68 in 10.0 mi West 19.6 mph 26.5 mph N/A   Clear
4:53 PM 75.0 °F 42.1 °F 31% 29.69 in 10.0 mi West 13.8 mph 23.0 mph N/A   Partly Cloudy
5:53 PM 73.9 °F 44.1 °F 34% 29.71 in 10.0 mi West 12.7 mph - N/A   Clear
6:53 PM 68.0 °F 45.0 °F 43% 29.73 in 10.0 mi SW 3.5 mph - N/A   Clear
7:53 PM 60.1 °F 48.9 °F 67% 29.76 in 10.0 mi South 4.6 mph - N/A   Clear
8:53 PM 61.0 °F 48.0 °F 62% 29.79 in 10.0 mi SSW 6.9 mph - N/A   Clear
9:53 PM 57.9 °F 48.9 °F 72% 29.81 in 10.0 mi SSW 6.9 mph - N/A   Clear
10:53 PM 57.0 °F 48.0 °F 72% 29.83 in 10.0 mi SSW 6.9 mph - N/A   Clear
11:53 PM 57.0 °F 48.0 °F 72% 29.83 in 10.0 mi SSW 8.1 mph - N/A   Clear